| time (UTC) | temp F | wind direction | speed MPH | gust MPH | rain 1hr in | rain 24hr in | rain mn in | humidity % | barometer mb |
| 20260904164004 | 93 | 237 | 3.0 | 7.0 | 0.00 | 0.00 | 0.00 | 60 | 1016.3 |
| 20260904163004 | 93 | 257 | 3.0 | 7.0 | 0.00 | 0.00 | 0.00 | 62 | 1016.5 |
| 20260904162004 | 92 | 238 | 4.0 | 13.0 | 0.00 | 0.00 | 0.00 | 60 | 1016.5 |
| 20260904161004 | 92 | 234 | 4.0 | 9.0 | 0.00 | 0.00 | 0.00 | 61 | 1016.5 |
| 20260904160004 | 91 | 232 | 5.0 | 12.0 | 0.00 | 0.00 | 0.00 | 61 | 1016.5 |
| 20260904155004 | 91 | 219 | 3.0 | 7.0 | 0.00 | 0.00 | 0.00 | 64 | 1016.4 |
| 20260904154004 | 90 | 233 | 4.0 | 10.0 | 0.00 | 0.00 | 0.00 | 63 | 1016.4 |
| 20260904153004 | 90 | 218 | 4.0 | 10.0 | 0.00 | 0.00 | 0.00 | 63 | 1016.5 |
| 20260904152004 | 90 | 219 | 4.0 | 8.0 | 0.00 | 0.00 | 0.00 | 64 | 1016.6 |
| 20260904151004 | 90 | 232 | 3.0 | 8.0 | 0.00 | 0.00 | 0.00 | 66 | 1016.6 |
| 20260904150004 | 89 | 237 | 3.0 | 9.0 | 0.00 | 0.00 | 0.00 | 66 | 1016.5 |
| 20260904145004 | 89 | 226 | 3.0 | 7.0 | 0.00 | 0.00 | 0.00 | 70 | 1016.5 |
| 20260904144004 | 88 | 228 | 2.0 | 7.0 | 0.00 | 0.00 | 0.00 | 68 | 1016.5 |
| 20260904143004 | 88 | 238 | 2.0 | 6.0 | 0.00 | 0.00 | 0.00 | 70 | 1016.4 |
| 20260904142004 | 87 | 227 | 2.0 | 7.0 | 0.00 | 0.00 | 0.00 | 70 | 1016.3 |
| 20260904141025 | 86 | 242 | 3.0 | 7.0 | 0.00 | 0.00 | 0.00 | 70 | 1016.3 |
| 20260904140004 | 86 | 236 | 3.0 | 5.0 | 0.00 | 0.00 | 0.00 | 71 | 1016.1 |
| 20260904135004 | 85 | 240 | 2.0 | 7.0 | 0.00 | 0.00 | 0.00 | 71 | 1016.2 |
| 20260904134004 | 84 | 224 | 3.0 | 8.0 | 0.00 | 0.00 | 0.00 | 72 | 1016.2 |
| 20260904133004 | 84 | 229 | 2.0 | 6.0 | 0.00 | 0.00 | 0.00 | 73 | 1016.3 |
| 20260904132004 | 83 | 223 | 2.0 | 5.0 | 0.00 | 0.00 | 0.00 | 74 | 1016.2 |
| 20260904131004 | 82 | 210 | 2.0 | 5.0 | 0.00 | 0.00 | 0.00 | 76 | 1016.1 |
| 20260904130004 | 82 | 209 | 2.0 | 4.0 | 0.00 | 0.00 | 0.00 | 76 | 1016.2 |
| 20260904125004 | 81 | 215 | 2.0 | 4.0 | 0.00 | 0.00 | 0.00 | 77 | 1016.2 |
| 20260904124004 | 80 | 209 | 1.0 | 3.0 | 0.00 | 0.00 | 0.00 | 78 | 1016.2 |
| 20260904123004 | 79 | 212 | 1.0 | 3.0 | 0.00 | 0.00 | 0.00 | 80 | 1016.1 |
| 20260904122004 | 78 | 214 | 1.0 | 2.0 | 0.00 | 0.00 | 0.00 | 80 | 1016.1 |
| 20260904121004 | 78 | 0 | 0.0 | 0.0 | 0.00 | 0.00 | 0.00 | 82 | 1016.0 |
| 20260904120004 | 77 | 0 | 0.0 | 0.0 | 0.00 | 0.00 | 0.00 | 84 | 1015.9 |
| 20260904115004 | 76 | 0 | 0.0 | 0.0 | 0.00 | 0.00 | 0.00 | 84 | 1015.9 |
| 20260904114004 | 76 | 0 | 0.0 | 2.0 | 0.00 | 0.00 | 0.00 | 84 | 1015.6 |
| 20260904113004 | 76 | 202 | 0.0 | 2.0 | 0.00 | 0.00 | 0.00 | 85 | 1015.4 |
| 20260904112004 | 76 | 0 | 0.0 | 0.0 | 0.00 | 0.00 | 0.00 | 84 | 1015.3 |
| 20260904111004 | 76 | 226 | 0.0 | 2.0 | 0.00 | 0.00 | 0.00 | 84 | 1015.3 |
| 20260904110004 | 76 | 208 | 0.0 | 2.0 | 0.00 | 0.00 | 0.00 | 85 | 1015.2 |
| 20260904105004 | 76 | 208 | 0.0 | 2.0 | 0.00 | 0.00 | 0.00 | 85 | 1015.1 |
| 20260904104004 | 76 | 207 | 0.0 | 2.0 | 0.00 | 0.00 | 0.00 | 85 | 1015.0 |
| 20260904103004 | 76 | 213 | 1.0 | 2.0 | 0.00 | 0.00 | 0.00 | 85 | 1015.0 |
| 20260904102004 | 76 | 203 | 0.0 | 2.0 | 0.00 | 0.00 | 0.00 | 85 | 1015.0 |
| 20260904101004 | 77 | 171 | 0.0 | 2.0 | 0.00 | 0.00 | 0.00 | 85 | 1015.0 |
| 20260904100004 | 76 | 158 | 0.0 | 3.0 | 0.00 | 0.00 | 0.00 | 86 | 1014.9 |
| 20260904095004 | 76 | 0 | 0.0 | 0.0 | 0.00 | 0.00 | 0.00 | 86 | 1015.0 |
| 20260904094025 | 76 | 184 | 0.0 | 2.0 | 0.00 | 0.00 | 0.00 | 87 | 1015.0 |
| 20260904093004 | 76 | 158 | 0.0 | 3.0 | 0.00 | 0.00 | 0.00 | 88 | 1015.0 |
| 20260904092004 | 75 | 0 | 0.0 | 0.0 | 0.00 | 0.00 | 0.00 | 90 | 1015.0 |
| 20260904091025 | 75 | 0 | 0.0 | 0.0 | 0.00 | 0.00 | 0.00 | 90 | 1015.0 |
| 20260904090004 | 74 | 0 | 0.0 | 0.0 | 0.00 | 0.00 | 0.00 | 90 | 1014.9 |
| 20260904085004 | 74 | 0 | 0.0 | 0.0 | 0.00 | 0.00 | 0.00 | 90 | 1014.8 |
| 20260904084004 | 74 | 0 | 0.0 | 0.0 | 0.00 | 0.00 | 0.00 | 89 | 1014.8 |
| 20260904083025 | 75 | 0 | 0.0 | 0.0 | 0.00 | 0.00 | 0.00 | 89 | 1014.7 |
| 20260904082025 | 76 | 0 | 0.0 | 0.0 | 0.00 | 0.00 | 0.00 | 89 | 1014.8 |
| 20260904081004 | 76 | 0 | 0.0 | 0.0 | 0.00 | 0.00 | 0.00 | 88 | 1014.8 |
| 20260904080025 | 76 | 0 | 0.0 | 0.0 | 0.00 | 0.00 | 0.00 | 88 | 1015.0 |
| 20260904075004 | 75 | 350 | 1.0 | 3.0 | 0.00 | 0.00 | 0.00 | 89 | 1015.2 |
| 20260904074025 | 75 | 351 | 0.0 | 3.0 | 0.00 | 0.00 | 0.00 | 89 | 1015.3 |
| 20260904073025 | 75 | 0 | 0.0 | 0.0 | 0.00 | 0.00 | 0.00 | 89 | 1015.4 |
| 20260904072004 | 75 | 0 | 0.0 | 0.0 | 0.00 | 0.00 | 0.00 | 89 | 1015.4 |
| 20260904071004 | 75 | 0 | 0.0 | 0.0 | 0.00 | 0.00 | 0.00 | 89 | 1015.4 |
| 20260904070004 | 76 | 0 | 0.0 | 0.0 | 0.00 | 0.00 | 0.00 | 89 | 1015.4 |
| 20260904065004 | 76 | 0 | 0.0 | 0.0 | 0.00 | 0.00 | 0.00 | 89 | 1015.6 |
| 20260904064004 | 76 | 0 | 0.0 | 0.0 | 0.00 | 0.00 | 0.00 | 89 | 1015.6 |
| 20260904063004 | 76 | 0 | 0.0 | 0.0 | 0.00 | 0.00 | 0.00 | 89 | 1015.6 |
| 20260904062025 | 76 | 0 | 0.0 | 0.0 | 0.00 | 0.00 | 0.00 | 89 | 1015.5 |
| 20260904061004 | 76 | 0 | 0.0 | 0.0 | 0.00 | 0.00 | 0.00 | 89 | 1015.6 |
| 20260904060004 | 76 | 0 | 0.0 | 0.0 | 0.00 | 0.00 | 0.00 | 89 | 1015.7 |
| 20260904055004 | 76 | 0 | 0.0 | 0.0 | 0.00 | 0.00 | 0.00 | 89 | 1015.8 |
| 20260904054025 | 76 | 0 | 0.0 | 0.0 | 0.00 | 0.00 | 0.00 | 88 | 1015.8 |
| 20260904053004 | 76 | 0 | 0.0 | 0.0 | 0.00 | 0.00 | 0.00 | 88 | 1015.8 |
| 20260904052004 | 76 | 0 | 0.0 | 0.0 | 0.00 | 0.00 | 0.00 | 88 | 1015.8 |
| 20260904051004 | 76 | 0 | 0.0 | 0.0 | 0.00 | 0.00 | 0.00 | 88 | 1015.8 |
| 20260904050004 | 76 | 0 | 0.0 | 0.0 | 0.00 | 0.00 | 0.00 | 88 | 1015.8 |
| 20260904045025 | 76 | 0 | 0.0 | 0.0 | 0.00 | 0.00 | 0.00 | 87 | 1015.8 |
| 20260904044004 | 77 | 0 | 0.0 | 0.0 | 0.00 | 0.00 | 0.00 | 87 | 1015.7 |
| 20260904043004 | 77 | 0 | 0.0 | 0.0 | 0.00 | 0.00 | 0.00 | 87 | 1015.6 |
| 20260904042025 | 77 | 0 | 0.0 | 0.0 | 0.00 | 0.00 | 0.00 | 87 | 1015.5 |
| 20260904041004 | 77 | 0 | 0.0 | 0.0 | 0.00 | 0.00 | 0.00 | 87 | 1015.4 |
| 20260904040004 | 77 | 0 | 0.0 | 0.0 | 0.00 | 0.00 | 0.00 | 87 | 1015.3 |
| 20260904035025 | 77 | 0 | 0.0 | 0.0 | 0.00 | 0.00 | 0.00 | 87 | 1015.3 |
| 20260904034025 | 78 | 0 | 0.0 | 0.0 | 0.00 | 0.00 | 0.00 | 86 | 1015.3 |
| 20260904033004 | 78 | 0 | 0.0 | 0.0 | 0.00 | 0.00 | 0.00 | 86 | 1015.3 |
| 20260904032025 | 78 | 0 | 0.0 | 0.0 | 0.00 | 0.00 | 0.00 | 86 | 1015.3 |
| 20260904031004 | 78 | 0 | 0.0 | 0.0 | 0.00 | 0.00 | 0.00 | 87 | 1015.3 |
| 20260904030004 | 78 | 0 | 0.0 | 0.0 | 0.00 | 0.00 | 0.00 | 86 | 1015.4 |
| 20260904025004 | 78 | 0 | 0.0 | 0.0 | 0.00 | 0.00 | 0.00 | 86 | 1015.5 |
| 20260904024004 | 78 | 0 | 0.0 | 0.0 | 0.00 | 0.00 | 0.00 | 85 | 1015.5 |
| 20260904023004 | 79 | 0 | 0.0 | 0.0 | 0.00 | 0.00 | 0.00 | 86 | 1015.4 |
| 20260904022004 | 79 | 0 | 0.0 | 0.0 | 0.00 | 0.00 | 0.00 | 86 | 1015.3 |
| 20260904021004 | 79 | 0 | 0.0 | 0.0 | 0.00 | 0.00 | 0.00 | 86 | 1015.2 |
| 20260904020004 | 79 | 0 | 0.0 | 0.0 | 0.00 | 0.00 | 0.00 | 85 | 1015.3 |
| 20260904015004 | 80 | 0 | 0.0 | 0.0 | 0.00 | 0.00 | 0.00 | 84 | 1015.3 |
| 20260904014025 | 80 | 0 | 0.0 | 0.0 | 0.00 | 0.00 | 0.00 | 85 | 1015.3 |
| 20260904013004 | 80 | 0 | 0.0 | 0.0 | 0.00 | 0.00 | 0.00 | 84 | 1015.2 |
| 20260904012004 | 80 | 0 | 0.0 | 0.0 | 0.00 | 0.00 | 0.00 | 83 | 1015.0 |
| 20260904011004 | 81 | 0 | 0.0 | 0.0 | 0.00 | 0.00 | 0.00 | 82 | 1015.0 |
| 20260904010004 | 82 | 0 | 0.0 | 0.0 | 0.00 | 0.00 | 0.00 | 80 | 1015.0 |
| 20260904005025 | 83 | 0 | 0.0 | 0.0 | 0.00 | 0.00 | 0.00 | 78 | 1015.0 |
| 20260904004025 | 83 | 0 | 0.0 | 0.0 | 0.00 | 0.00 | 0.00 | 79 | 1014.9 |
| 20260904003004 | 84 | 0 | 0.0 | 0.0 | 0.00 | 0.00 | 0.00 | 77 | 1014.7 |
| 20260904002004 | 85 | 0 | 0.0 | 0.0 | 0.00 | 0.00 | 0.00 | 72 | 1014.5 |
| 20260904001004 | 85 | 0 | 0.0 | 0.0 | 0.00 | 0.00 | 0.00 | 72 | 1014.4 |
| 20260904000004 | 87 | 0 | 0.0 | 0.0 | 0.00 | 0.00 | 0.00 | 69 | 1014.4 |
| 20260903235004 | 87 | 0 | 0.0 | 0.0 | 0.00 | 0.00 | 0.00 | 69 | 1014.5 |
| 20260903234004 | 88 | 0 | 0.0 | 0.0 | 0.00 | 0.00 | 0.00 | 66 | 1014.5 |
| 20260903233004 | 89 | 223 | 1.0 | 3.0 | 0.00 | 0.00 | 0.00 | 64 | 1014.5 |
| 20260903232004 | 89 | 219 | 2.0 | 4.0 | 0.00 | 0.00 | 0.00 | 63 | 1014.5 |
| 20260903231025 | 90 | 207 | 3.0 | 6.0 | 0.00 | 0.00 | 0.00 | 62 | 1014.3 |
| 20260903230025 | 90 | 224 | 2.0 | 5.0 | 0.00 | 0.00 | 0.00 | 61 | 1014.2 |
| 20260903225004 | 91 | 221 | 3.0 | 8.0 | 0.00 | 0.00 | 0.00 | 61 | 1014.0 |
| 20260903224004 | 91 | 213 | 2.0 | 7.0 | 0.00 | 0.00 | 0.00 | 61 | 1014.1 |
| 20260903223004 | 91 | 222 | 4.0 | 8.0 | 0.00 | 0.00 | 0.00 | 60 | 1014.1 |
| 20260903222004 | 92 | 228 | 3.0 | 8.0 | 0.00 | 0.00 | 0.00 | 59 | 1014.2 |
| 20260903221004 | 92 | 222 | 4.0 | 10.0 | 0.00 | 0.00 | 0.00 | 60 | 1014.3 |
| 20260903220004 | 92 | 222 | 4.0 | 10.0 | 0.00 | 0.00 | 0.00 | 58 | 1014.3 |
| 20260903215025 | 92 | 246 | 4.0 | 8.0 | 0.00 | 0.00 | 0.00 | 57 | 1014.2 |
| 20260903214004 | 92 | 242 | 4.0 | 9.0 | 0.00 | 0.00 | 0.00 | 56 | 1014.2 |
| 20260903213004 | 92 | 230 | 5.0 | 12.0 | 0.00 | 0.00 | 0.00 | 56 | 1014.2 |
| 20260903212004 | 92 | 220 | 6.0 | 12.0 | 0.00 | 0.00 | 0.00 | 57 | 1014.2 |
| 20260903211004 | 93 | 234 | 5.0 | 12.0 | 0.00 | 0.00 | 0.00 | 55 | 1014.2 |
| 20260903210004 | 93 | 232 | 4.0 | 12.0 | 0.00 | 0.00 | 0.00 | 55 | 1014.2 |
| 20260903205025 | 93 | 228 | 6.0 | 13.0 | 0.00 | 0.00 | 0.00 | 55 | 1014.2 |
| 20260903204004 | 93 | 229 | 4.0 | 10.0 | 0.00 | 0.00 | 0.00 | 55 | 1014.2 |
| 20260903203004 | 93 | 219 | 5.0 | 9.0 | 0.00 | 0.00 | 0.00 | 55 | 1014.3 |
| 20260903202004 | 93 | 203 | 4.0 | 10.0 | 0.00 | 0.00 | 0.00 | 55 | 1014.5 |
| 20260903201004 | 94 | 224 | 5.0 | 16.0 | 0.00 | 0.00 | 0.00 | 55 | 1014.6 |
| 20260903200004 | 93 | 227 | 6.0 | 16.0 | 0.00 | 0.00 | 0.00 | 56 | 1014.7 |
| 20260903195003 | 93 | 229 | 5.0 | 11.0 | 0.00 | 0.00 | 0.00 | 55 | 1014.9 |
| 20260903194004 | 93 | 233 | 4.0 | 10.0 | 0.00 | 0.00 | 0.00 | 54 | 1015.0 |
| 20260903193003 | 93 | 255 | 4.0 | 9.0 | 0.00 | 0.00 | 0.00 | 58 | 1015.3 |
| 20260903192025 | 94 | 211 | 5.0 | 12.0 | 0.00 | 0.00 | 0.00 | 56 | 1015.4 |
| 20260903191025 | 93 | 226 | 4.0 | 9.0 | 0.00 | 0.00 | 0.00 | 57 | 1015.5 |
| 20260903190004 | 93 | 216 | 4.0 | 9.0 | 0.00 | 0.00 | 0.00 | 56 | 1015.6 |
| 20260903185004 | 93 | 222 | 5.0 | 10.0 | 0.00 | 0.00 | 0.00 | 56 | 1015.6 |
| 20260903184004 | 93 | 245 | 5.0 | 9.0 | 0.00 | 0.00 | 0.00 | 56 | 1015.6 |
| 20260903183004 | 93 | 244 | 5.0 | 11.0 | 0.00 | 0.00 | 0.00 | 54 | 1015.6 |
| 20260903182004 | 93 | 240 | 5.0 | 11.0 | 0.00 | 0.00 | 0.00 | 57 | 1015.6 |
| 20260903181004 | 93 | 213 | 3.0 | 9.0 | 0.00 | 0.00 | 0.00 | 56 | 1015.6 |
| 20260903180004 | 93 | 227 | 4.0 | 11.0 | 0.00 | 0.00 | 0.00 | 58 | 1015.7 |
| 20260903175004 | 92 | 216 | 6.0 | 11.0 | 0.00 | 0.00 | 0.00 | 58 | 1015.8 |
| 20260903174004 | 92 | 205 | 5.0 | 10.0 | 0.00 | 0.00 | 0.00 | 59 | 1015.8 |
| 20260903173004 | 92 | 220 | 4.0 | 9.0 | 0.00 | 0.00 | 0.00 | 56 | 1015.9 |
| 20260903172004 | 92 | 223 | 6.0 | 10.0 | 0.00 | 0.00 | 0.00 | 57 | 1016.0 |
| 20260903171025 | 92 | 206 | 6.0 | 11.0 | 0.00 | 0.00 | 0.00 | 58 | 1016.1 |
| 20260903170004 | 91 | 217 | 6.0 | 12.0 | 0.00 | 0.00 | 0.00 | 57 | 1016.2 |
| 20260903165004 | 91 | 222 | 6.0 | 12.0 | 0.00 | 0.00 | 0.00 | 59 | 1016.3 |
| 20260903164025 | 91 | 223 | 5.0 | 16.0 | 0.00 | 0.00 | 0.00 | 59 | 1016.4 |